This is the latest recevied weather packets stored in our database for station/object KK7MLS-13. If no packets are shown the sender has not sent any weather packets the latest 10 day(s).
| Time | Temp. | Humidity | Pressure | Rain* | Wind** | Luminosity | Snow |
|---|---|---|---|---|---|---|---|
| 1777569887 | 18.89° C | 54% | 1018.9 hPa | 0 mm | - | 425 W/m² | - |
| 1777569583 | 18.89° C | 52% | 1018.8 hPa | 0 mm | - | 330 W/m² | - |
| 1777569279 | 18.89° C | 51% | 1018.7 hPa | 0 mm | - | 322 W/m² | - |
| 1777568976 | 18.33° C | 52% | 1018.8 hPa | 0 mm | - | 347 W/m² | - |
| 1777568672 | 18.33° C | 50% | 1018.8 hPa | 0 mm | - | 358 W/m² | - |
| 1777568370 | 17.78° C | 52% | 1019 hPa | 0 mm | - | 321 W/m² | - |
| 1777568067 | 18.33° C | 52% | 1018.9 hPa | 0 mm | - | 318 W/m² | - |
| 1777567763 | 18.33° C | 52% | 1019.1 hPa | 0 mm | - | 278 W/m² | - |
| 1777567460 | 18.33° C | 51% | 1019 hPa | 0 mm | - | 259 W/m² | - |
| 1777567158 | 18.33° C | 52% | 1019.2 hPa | 0 mm | - | 264 W/m² | - |
| 1777566855 | 18.33° C | 52% | 1019.1 hPa | 0 mm | - | 243 W/m² | - |
| 1777566553 | 18.89° C | 49% | 1019 hPa | 0 mm | - | 309 W/m² | - |
| 1777566251 | 18.89° C | 50% | 1018.9 hPa | 0 mm | - | 406 W/m² | - |
| 1777565948 | 18.33° C | 50% | 1019.2 hPa | 0 mm | - | 271 W/m² | - |
| 1777565643 | 18.33° C | 53% | 1019.2 hPa | 0 mm | - | 383 W/m² | - |
| 1777565339 | 17.78° C | 51% | 1019.3 hPa | 0 mm | - | 371 W/m² | - |
| 1777565035 | 17.22° C | 53% | 1019.4 hPa | 0 mm | - | 304 W/m² | - |
| 1777564731 | 17.22° C | 52% | 1019.3 hPa | 0 mm | - | 304 W/m² | - |
| 1777564427 | 17.22° C | 54% | 1019.3 hPa | 0 mm | - | 262 W/m² | - |
| 1777564123 | 16.67° C | 57% | 1019.4 hPa | 0 mm | - | 297 W/m² | - |
| 1777563819 | 16.11° C | 58% | 1019.4 hPa | 0 mm | - | 306 W/m² | - |
| 1777563516 | 15.56° C | 59% | 1019.4 hPa | 0 mm | - | 235 W/m² | - |
| 1777563215 | 15.56° C | 59% | 1019.2 hPa | 0 mm | - | 179 W/m² | - |
| 1777562912 | 16.11° C | 60% | 1019.3 hPa | 0 mm | - | 231 W/m² | - |
| 1777562608 | 15.56° C | 59% | 1019.1 hPa | 0 mm | - | 234 W/m² | - |
* Rain latest hour (hover to see other rain measurements)
** Current wind speed in m/s (hover to see current wind gust speed)